Tracking 29487 objects as of 10-Sep-2024
HD Live streaming from Space Station
objects crossing your sky now

STARLINK-30457

Track STARLINK-30457 now!
10-day predictions
STARLINK-30457 is classified as:


NORAD ID: 57900
Int'l Code: 2023-146K
Perigee: 565.2 km
Apogee: 567.2 km
Inclination: 43.0 °
Period: 95.8 minutes
Semi major axis: 6937 km
RCS: Unknown
Launch date: September 20, 2023
Source: United States (US)
Launch site: AIR FORCE EASTERN TEST RANGE (AFETR)
Your satellite tracking list
Your tracking list is empty




NASA's NSSDC Master Catalog

Two Line Element Set (TLE):
1 57900U 23146K   24254.40221521  .00002365  00000-0  19000-3 0  9990
2 57900  43.0000  36.0414 0001465 268.8618  91.2057 15.02548771 54837
Source of the keplerian elements: AFSPC